Погода в Архаре

Погода в Архаре : погода сейчас, прогноз погоды и архив. Всё, что Вы хотите узнать о погоде в Архаре!

Хотите узнать прогноз погоды в Архаре? Тогда Вам сюда: Погода в Архаре

Поиск расширенной информации на нашем сайте:

Другие новости

Новости СМИ2

Главная страница сайта

Новости сайта

02.10.2013

Напоминаем, что на нашем новом сайте вы можете получить высокодетализированные прогнозы погоды по пунктам России, СНГ и мира (включающие важные для авиации метеовеличины, такие как направление и скорость ветра, видимость, явления погоды, количество и форма облачности, нижняя и верхняя граница облачности), а также ознакомиться с разнообразными материалами по авиационной метеорологии и подборкой полезных ссылок на эту тему.

Сайт Метеоцентр.Азия посвящён разработке технологий оптимизации авиаметеорологического обслуживания, включая проектирование и перспективное создание нескольких автоматизированных авиаметеорологических систем:
- система выпуска высокодетальных прогностических карт явлений погоды для нижнего воздушного пространства по России и ближнему зарубежью;
- система верификации прогнозов TAF (выпускаемых синоптиками официальных АМСГ РФ и ближнего зарубежья) и AUTOTAF (выпускаемых сайтом Метеоцентр.Азия) - выявление ошибок, онлайн-сопоставление с фактической погодой METAR, автоматическое внесение коррективов в прогнозы при резком отклонении фактической погоды от прогноза, подсчёт оправдываемости прогнозов по элементам и в целом;
- система обработки, анализа и отображения авиаметеорологической информации для применения провайдерами метеорологической информации.

Рекомендуем: Описание офигенное радио на нашем сайте.

Погода в Архаре - сегодня

Время (UTC), дата Ветер
(°,м/с) 
Видим.   Явления Облачность Т
(°С)
Тd
(°С)
f(%) Тe
(°С)
Pmin
(гПа)
dP
(гПа)
Po
(мм)
O2
(г/м3)
Тmin Tmax R s Состояние
почвы
06 18.02.17 270 (З) 20000 м    ясно 
-17.9 -27.9 41 -23  1021.4  -0.1  752  326           
09 18.02.17 300 (СЗ) 20000 м    ясно 
-20.1 -28.8 46 -23  1022.2  0.6  753  329           
12 18.02.17 340 (С) 20000 м    ясно 
-29.7 -33.7 68 -33  1023.3  0.4  753  342    -17.8       
15 18.02.17 тихо ()   20000 м    ясно 
-33.4 -37.4 67 -33  1022.8  -0.8  752  347           
18 18.02.17 180 (Ю) 20000 м    ясно 
-34.1 -37.1 74 -35  1022.2  -0.7  752  348           
21 18.02.17 110 (В) 20000 м    ясно 
-34.6 -37.4 76 -39  1021.6  -0.6  752  349           
00 19.02.17 тихо ()   4000 м  дымка  ясно 
-28.6 -32.3 70 -29  1021.6  0.5  752  340  -35.9      32  равномерный
сухой снег
100% 
03 19.02.17 220 (ЮЗ) 20000 м    ясно 
-22.3 -30.7 46 -23  1020.4  -0.6  751  332           
06 19.02.17 220 (ЮЗ) 20000 м    ясно 
-17.5 -28.5 38 -18  1018.1  -2  750  325           
09 19.02.17 320 (СЗ) 20000 м    1/0 верхняя 
[Ci fib]
-20.3 -29.6 43 -23  1017.5  -0.8  749  328           
12 19.02.17 340 (С) 20000 м    4/0 верхняя 
[Ci fib]
-27.5 -32.1 65 -31  1018.6  0.5  750  338    -16.1       
15 19.02.17 360 (С) 20000 м    ясно 
-27.7 -31.7 69 -31  1018.9  0.3  750  338           
18 19.02.17 350 (С) 20000 м    ясно 
-30.1 -34 69 -36  1019.3  0.2  750  342           
21 19.02.17 360 (С) 20000 м    4/0 верхняя 
[Ci fib]
-29.5 -33.7 67 -33  1020.4  1.1  751  341           
00 20.02.17 320 (СЗ) 20000 м    3/0 верхняя 
[Ci fib]
-26.6 -32 60 -27  1021.8  1.6  752  338  -30.9      32  равномерный
сухой снег
100% 
03 20.02.17 270 (З) 20000 м    ясно 
-19.5 -29.5 41 -24  1022.1  0.8  753  328           
06 20.02.17 300 (СЗ) 20000 м    ясно 
-15 -26.1 38 -20  1021.3  -0.4  752  323           
09 20.02.17 290 (З) 20000 м    3/0 верхняя 
[Ci fib]
-15.8 -25.1 45 -20  1022.3  753  324           
12 20.02.17 010 (С) 20000 м    ясно 
-20.9 -26.3 62 -21  1024.3  1.6  754  331    -14.5       
15 20.02.17 тихо ()   20000 м    ясно 
-27.5 -31.2 71 -28  1025.1  0.3  755  340           
18 20.02.17 340 (С) 20000 м    ясно 
-29.7 -33.2 72 -30  1026.1  0.8  755  343           
21 20.02.17 360 (С) 20000 м    ясно 
-30.4 -34.3 69 -31  1027.4  1.2  756  345           
00 21.02.17 тихо ()   10 км    ясно 
-25.3 -29.4 69 -25  1028.1  1.1  757  338  -30.8      31  равномерный
сухой снег
100% 
03 21.02.17 180 (Ю) 20000 м    ясно 
-14 -24.1 42 -16  1026.7  -0.5  756  323           
06 21.02.17 190 (Ю) 20000 м    ясно 
-9.5 -22.1 35 -9  1024.4  -1.9  755  317           
Время (UTC), дата Ветер
(°,м/с) 
Видим.   Явления Облачность Т
(°С)
Тd
(°С)
f(%) Тe
(°С)
Pmin
(гПа)
dP
(гПа)
Po
(мм)
O2
(г/м3)
Тmin Tmax R s Состояние
почвы

Для получения пояснительной информации подведите курсор к названию столбца.

ПОГОДА в Архаре - архив

Всё, что Вы хотите узнать о погоде в Архаре - удобно и подробно!

Выберите нужную дату (начиная с 1 января 2015* года) и нажмите кнопку "Найти".
Будут отображены архивные сводки погоды по пункту Архара, начиная с указанной даты.


Отображать данные в формате CSV (для использования в таблицах Excel)


Внимание! Наш архив погоды предназначен исключительно для личного некоммерческого использования в познавательных целях. Если Вам необходимы официальные справки о состоянии погоды (для производственных, юридических, коммерческих и т.п. целей), обращайтесь в органы Росгидромета.

*Примечание: данная дата относится к архиву по метеостанциям СССР (Россия, СНГ, Балтия).
Архив по метеостанциям Зарубежной Европы и Азии (кроме Китая) хранится 10 дней, по другим регионам земного шара (Китай, Африка, Америка, Австралия, Океания) - 1 день.

Архара - район местоположения метеостанции


Название, широта, долгота, высота метеостанции:
Архара 49.4°ш. 130.1°д. 135 м над ур. моря [Российская Федерация]

Дополнительная информация

В oтличие oт бoльшинства пoгoдных сайтoв мы публикуем пoдрoбную метеoинфoрмацию в детальнoм прoфессиoнальнoм фoрмате.

Характеристики температуры и влажнoсти вoздуха измеряются на высoте 2 м в тени вдали oт зданий и деревьев.
Скoрoсть ветра измеряется на высoте 10 м (на урoвне рoста челoвека скoрoсть ветра ниже в 1.5-2 раза). Если метеoстанция нахoдится в гoрoде или в лесу, тo скoрoсть ветра занижена на 2-4 м/с пo сравнению с oткрытым местoм. Скoрoсть ветра над акватoриями крупных рек и oзёр, а также на вершинах хoлмoв на 2-5 м/с выше, чем в oбычных услoвиях.
Атмoсфернoе давление в разных тoчках местнoсти мoжет значительнo oтличаться oт давления на метеoстанции, в зависимoсти oт услoвий рельефа (при пoдъёме на 10 м давление пoнижается примернo на 1 мм рт.ст.).